Home > Weather > Dammam > Past weeks

Flag for Saudi Arabia Past Weather in Dammam, Saudi Arabia — Yesterday and Last 2 Weeks

Now
91 °F

Clear.


Feels Like: 97 °F
Forecast: 84 / 109 °F
Wind: 8 mph from Southeast

Location: Dhahran

Current Time: Jun 26, 2016 at 12:24:15 AM

Latest Report: Jun 26, 2016 at 12:00 AM


Visibility: 10 mi

Pressure: 29.45 "Hg

Humidity: 49%

Dew Point: 70 °F

Location of DammamLocation

Past Weather in Dammam — Graph

°F

Dammam Temperature Yesterday

Maximum temperature yesterday: 111 °F (at 1:00 PM)
Minimum temperature yesterday: 82 °F (at 5:00 AM)
Average temperature yesterday: 96 °F

High & Low Weather Summary for the Past Weeks

 TemperatureHumidityPressure
High115 °F (Jun 24, 1:00 PM)66% (Jun 11, 2:00 AM)30.01 "Hg (Jun 11, 2:00 AM)
Low54 °F (Jun 16, 4:00 AM)5% (Jun 15, 12:00 PM)29.42 "Hg (Jun 15, 5:00 PM)
Average96 °F19%29.53 "Hg
* Reported Jun 10 11:00 PM — Jun 25 11:00 PM, Dammam, Weather by CustomWeather, © 2016

Note: Actual official high and low records may vary slightly from our data, if they occured in-between our weather recording intervals... More about our weather records

Advertising

Dammam Weather History for the Previous 24 Hours

Scroll right to see more
 ConditionsComfort  
Time TempWeatherWind HumidityBarometerVisibility
11:00 PM
Sat, Jun 25
91 °FClear.8 mph44%29.47 "Hg10 mi
10:00 PM95 °FPassing clouds.7 mph30%29.47 "HgN/A
9:00 PM95 °FClear.7 mph30%29.47 "Hg10 mi
8:00 PM97 °FClear.9 mph30%29.45 "Hg10 mi
7:00 PM100 °FClear.7 mph25%29.45 "Hg10 mi
6:00 PM102 °FSunny.13 mph26%29.42 "Hg10 mi
5:00 PM106 °FSunny.12 mph20%29.42 "Hg10 mi
1:00 PM111 °FSunny.14 mph15%29.45 "Hg10 mi
12:00 PM108 °FSunny.14 mph17%29.47 "Hg10 mi
11:00 AM104 °FSunny.10 mph31%29.47 "Hg10 mi
10:00 AM108 °FSunny.3 mph8%29.47 "Hg10 mi
9:00 AM104 °FSunny.12 mph12%29.47 "Hg10 mi
8:00 AM99 °FSunny.10 mph14%29.45 "Hg10 mi
7:00 AM95 °FSunny.7 mph22%29.47 "Hg10 mi
6:00 AM86 °FSunny.5 mph38%29.45 "Hg10 mi
5:00 AM82 °FSunny.5 mph58%29.45 "Hg10 mi
4:00 AM84 °FClear.3 mph48%29.42 "Hg10 mi
3:00 AM84 °FClear.7 mph51%29.42 "Hg10 mi
2:00 AM86 °FClear.5 mph52%29.42 "Hg10 mi
1:00 AM86 °FClear.7 mph55%29.42 "Hg10 mi
12:00 AM86 °FClear.7 mph55%29.42 "Hg10 mi
Weather by CustomWeather, © 2016

See weather overviewHow to use our weather pages